Weather History for South St. Paul, MN

Change the Weather History Date:

Tuesday, July 30, 2013

  Actual Average (KMSP) Record (KMSP)
Temperature  
Mean Temperature 70 °F 73 °F  
Max Temperature 74 °F 83 °F 100 °F (1933)
Min Temperature 66 °F 64 °F 50 °F (1971)
Degree Days  
Heating Degree Days 0 0  
Month to date heating degree days 0  
Since 1 June heating degree days 44  
Since 1 July heating degree days 0  
Cooling Degree Days 5 8  
Month to date cooling degree days 266  
Year to date cooling degree days 466  
Since 1 June cooling degree days 424  
Growing Degree Days 20 (Base 50)    
Moisture  
Dew Point 61 °F    
Average Humidity 72    
Maximum Humidity 87    
Minimum Humidity 64    
Precipitation  
Precipitation 0.00 in 0.14 in 1.65 in (1872)
Month to date precipitation 3.90  
Year to date precipitation 17.73  
Snow  
Snow 0.00 in 0.00 in 0.00 in ()
Month to date snowfall 0.0  
Since 1 June snowfall 0.0  
Since 1 July snowfall 0.0  
Snow Depth -    
Sea Level Pressure  
Sea Level Pressure 30.09 in    
Wind  
Wind Speed 2 mph (South)    
Max Wind Speed 8 mph    
Max Gust Speed -    
Visibility 10 miles    
Events Rain    
T = Trace of Precipitation, MM = Missing Value Source: NWS Daily Summary

Daily Weather History Graph

Daily Weather History Graph

Search for Another Location

Airport:

Trip Planner

Search our weather history database for the weather conditions in past years. The results will help you decide how hot, cold, wet, or windy it might be!

Date:

Astronomy

Jul. 30, 2013 Rise Set
Actual Time 5:55 AM CDT 8:40 PM CDT
Civil Twilight 5:22 AM CDT 9:14 PM CDT
Nautical Twilight 4:39 AM CDT 9:56 PM CDT
Astronomical Twilight 3:49 AM CDT 10:46 PM CDT
Moon 12:16 AM CDT (7/30) 3:00 PM CDT (7/30)
Length of Visible Light 15h 52m
Length of Day
14h 44m
Last Quarter, 41% of the Moon is Illuminated
Jul 30
Last Quarter
Aug 6
New
Aug 14
First Quarter
Aug 20
Full
Aug 28
Last Quarter

Hourly Weather History & Observations

Time (CDT) Temp. Dew Point Humidity Pressure Visibility Wind Dir Wind Speed Gust Speed Precip Events Conditions
12:13 AM 70.0 °F 57.2 °F 64% 30.10 in 10.0 mi Calm Calm - N/A   Overcast
12:33 AM 69.8 °F 57.2 °F 64% 30.10 in 10.0 mi Calm Calm - N/A   Overcast
12:53 AM 69.3 °F 57.9 °F 67% 30.10 in 10.0 mi SE 3.5 mph - N/A   Overcast
1:13 AM 68.9 °F 57.9 °F 68% 30.10 in 10.0 mi SSE 4.6 mph - N/A   Overcast
1:33 AM 68.9 °F 57.6 °F 67% 30.09 in 10.0 mi SE 4.6 mph - N/A   Overcast
1:53 AM 68.5 °F 57.6 °F 68% 30.08 in 10.0 mi SSE 3.5 mph - N/A   Overcast
2:13 AM 68.4 °F 57.4 °F 68% 30.08 in 10.0 mi Calm Calm - N/A   Overcast
2:33 AM 68.5 °F 57.2 °F 67% 30.08 in 10.0 mi Calm Calm - N/A   Overcast
2:53 AM 68.5 °F 57.0 °F 67% 30.08 in 10.0 mi Calm Calm - N/A   Overcast
3:13 AM 68.5 °F 56.8 °F 66% 30.09 in 10.0 mi Calm Calm - N/A   Overcast
3:33 AM 68.5 °F 56.8 °F 66% 30.09 in 10.0 mi Calm Calm - N/A   Overcast
3:53 AM 68.4 °F 57.2 °F 67% 30.09 in 10.0 mi SSE 3.5 mph - N/A   Overcast
4:13 AM 68.2 °F 57.2 °F 68% 30.10 in 10.0 mi Calm Calm - N/A   Overcast
4:33 AM 68.0 °F 57.2 °F 68% 30.09 in 10.0 mi SSE 4.6 mph - N/A   Overcast
4:53 AM 68.0 °F 56.8 °F 67% 30.09 in 10.0 mi SE 4.6 mph - N/A   Overcast
5:13 AM 68.0 °F 56.5 °F 67% 30.09 in 10.0 mi South 3.5 mph - N/A   Overcast
5:33 AM 68.0 °F 56.3 °F 66% 30.09 in 10.0 mi South 3.5 mph - N/A   Overcast
5:53 AM 68.0 °F 56.5 °F 67% 30.10 in 10.0 mi South 3.5 mph - N/A   Overcast
6:13 AM 68.0 °F 56.5 °F 67% 30.10 in 10.0 mi Calm Calm - N/A   Overcast
6:33 AM 67.3 °F 57.2 °F 70% 30.10 in 7.0 mi South 3.5 mph - N/A Rain Light Rain
6:53 AM 66.6 °F 58.1 °F 74% 30.11 in 10.0 mi Calm Calm - N/A   Overcast
7:13 AM 66.6 °F 58.6 °F 76% 30.11 in 10.0 mi Calm Calm - N/A   Overcast
7:33 AM 66.6 °F 59.0 °F 77% 30.12 in 10.0 mi Calm Calm - N/A   Overcast
7:53 AM 66.6 °F 58.8 °F 76% 30.12 in 7.0 mi Calm Calm - N/A   Overcast
8:13 AM 66.2 °F 59.7 °F 80% 30.11 in 7.0 mi Calm Calm - N/A   Overcast
8:33 AM 66.2 °F 58.6 °F 77% 30.11 in 10.0 mi Calm Calm - N/A   Overcast
8:53 AM 66.2 °F 59.4 °F 79% 30.11 in 7.0 mi Calm Calm - N/A   Light Drizzle
9:13 AM 66.7 °F 59.9 °F 79% 30.11 in 10.0 mi Calm Calm - N/A   Overcast
9:33 AM 67.1 °F 59.5 °F 77% 30.11 in 10.0 mi Calm Calm - N/A   Overcast
9:53 AM 67.1 °F 59.9 °F 78% 30.11 in 10.0 mi SSE 4.6 mph - N/A   Overcast
10:13 AM 67.6 °F 59.9 °F 76% 30.10 in 10.0 mi SSE 8.1 mph - N/A   Overcast
10:33 AM 68.0 °F 59.2 °F 73% 30.10 in 10.0 mi SSE 6.9 mph - N/A   Overcast
10:53 AM 68.2 °F 59.2 °F 73% 30.10 in 10.0 mi SSE 4.6 mph - N/A   Overcast
11:13 AM 69.4 °F 59.4 °F 70% 30.10 in 10.0 mi SSE 5.8 mph - N/A   Mostly Cloudy
11:33 AM 69.8 °F 59.2 °F 69% 30.10 in 10.0 mi SSE 4.6 mph - N/A   Mostly Cloudy
11:53 AM 70.0 °F 59.5 °F 69% 30.10 in 10.0 mi SE 5.8 mph - N/A   Mostly Cloudy
12:13 PM 70.7 °F 59.7 °F 68% 30.10 in 10.0 mi SSE 4.6 mph - N/A   Overcast
12:33 PM 71.1 °F 59.9 °F 68% 30.10 in 10.0 mi South 3.5 mph - N/A   Overcast
12:53 PM 72.1 °F 60.8 °F 67% 30.09 in 10.0 mi SE 4.6 mph - N/A   Mostly Cloudy
1:13 PM 72.7 °F 61.0 °F 67% 30.08 in 10.0 mi SE 6.9 mph - N/A   Mostly Cloudy
1:33 PM 73.2 °F 61.7 °F 67% 30.08 in 10.0 mi South 3.5 mph - N/A   Mostly Cloudy
1:53 PM 73.4 °F 61.7 °F 67% 30.08 in 10.0 mi SSW 5.8 mph - N/A   Overcast
2:13 PM 73.6 °F 62.1 °F 67% 30.08 in 10.0 mi SSW 4.6 mph - N/A   Overcast
2:33 PM 73.8 °F 62.6 °F 68% 30.08 in 10.0 mi WSW 3.5 mph - N/A   Mostly Cloudy
2:53 PM 73.6 °F 62.6 °F 68% 30.08 in 10.0 mi West 3.5 mph - N/A   Overcast
3:13 PM 73.4 °F 62.4 °F 68% 30.08 in 10.0 mi WNW 3.5 mph - N/A   Overcast
3:33 PM 74.1 °F 62.6 °F 67% 30.07 in 10.0 mi WSW 3.5 mph - N/A   Overcast
3:53 PM 73.9 °F 63.0 °F 68% 30.07 in 10.0 mi West 3.5 mph - N/A   Overcast
4:13 PM 73.8 °F 62.6 °F 68% 30.07 in 10.0 mi Calm Calm - N/A   Overcast
4:33 PM 73.8 °F 62.8 °F 68% 30.07 in 10.0 mi West 3.5 mph - N/A   Overcast
4:53 PM 73.6 °F 63.0 °F 69% 30.07 in 10.0 mi West 3.5 mph - N/A   Overcast
5:13 PM 73.4 °F 63.1 °F 70% 30.07 in 10.0 mi WNW 4.6 mph - N/A   Overcast
5:33 PM 73.4 °F 63.5 °F 71% 30.07 in 10.0 mi Calm Calm - N/A   Overcast
5:53 PM 73.8 °F 63.7 °F 71% 30.07 in 10.0 mi West 4.6 mph - N/A   Mostly Cloudy
6:13 PM 73.6 °F 63.7 °F 71% 30.07 in 10.0 mi West 4.6 mph - N/A   Overcast
6:33 PM 73.6 °F 63.9 °F 72% 30.07 in 10.0 mi Calm Calm - N/A   Overcast
6:53 PM 73.2 °F 63.5 °F 71% 30.07 in 10.0 mi NNW 6.9 mph - N/A   Overcast
7:13 PM 72.9 °F 63.1 °F 71% 30.07 in 10.0 mi North 3.5 mph - N/A   Overcast
7:33 PM 72.5 °F 63.5 °F 73% 30.07 in 10.0 mi NNE 4.6 mph - N/A   Overcast
7:53 PM 72.5 °F 63.5 °F 73% 30.08 in 10.0 mi NNW 5.8 mph - N/A   Overcast
8:13 PM 71.2 °F 63.7 °F 77% 30.08 in 10.0 mi Calm Calm - N/A   Overcast
8:33 PM 71.2 °F 63.5 °F 76% 30.07 in 10.0 mi Calm Calm - N/A   Overcast
8:53 PM 71.2 °F 63.5 °F 76% 30.07 in 10.0 mi Calm Calm - N/A   Overcast
9:13 PM 71.1 °F 63.9 °F 78% 30.08 in 10.0 mi Calm Calm - N/A   Overcast
9:33 PM 71.1 °F 63.7 °F 77% 30.08 in 10.0 mi Calm Calm - N/A   Overcast
9:53 PM 70.9 °F 63.9 °F 78% 30.08 in 10.0 mi SSW 3.5 mph - N/A   Mostly Cloudy
10:13 PM 70.2 °F 64.2 °F 81% 30.07 in 10.0 mi Calm Calm - N/A   Scattered Clouds
10:33 PM 69.8 °F 64.4 °F 83% 30.07 in 10.0 mi Calm Calm - N/A   Clear
10:53 PM 69.1 °F 64.6 °F 86% 30.08 in 10.0 mi Calm Calm - N/A   Clear
11:13 PM 68.7 °F 64.0 °F 85% 30.08 in 10.0 mi Calm Calm - N/A   Scattered Clouds
11:33 PM 68.4 °F 64.4 °F 87% 30.08 in 10.0 mi Calm Calm - N/A   Scattered Clouds
11:53 PM 67.8 °F 63.9 °F 87% 30.07 in 7.0 mi South 3.5 mph - N/A   Scattered Clouds